Regional Weather Roundup
Issued by NWS Goodland, KS

Home | Current Version | Previous Version | Graphics & Text | Print | Product List | Glossary On
Versions: 1 2 3 4 5 6 7 8 9 10 11 12 13 14 15 16 17 18 19 20 21 22 23 24 25 26 27 28 29 30 31 32 33 34 35 36 37 38 39 40 41 42 43 44 45 46 47 48 49 50
000
ASUS43 KGLD 310908
RWRGLD

GOODLAND FORECAST AREA HOURLY WEATHER ROUNDUP
NATIONAL WEATHER SERVICE GOODLAND KS
200 AM MST SAT JAN 31 2015

...OFFICIAL OBSERVATIONS...

CITY           SKY/WX    TMP DP  RH WIND       PRES   REMARKS
GOODLAND KS    CLOUDY    34  33  96 S14       30.00F
HILL CITY KS   CLOUDY    34  32  92 SE7       30.13F
IMPERIAL NEB   CLOUDY    34  32  92 SE8       30.00F
MCCOOK NEB     LGT SNOW  34  32  92 SE6       30.07F FOG
AKRON CO       CLOUDY    31  29  92 N8        29.95F
BURLINGTON CO  CLOUDY    34  33  96 SW14      29.98F
LIMON CO       CLOUDY    30  28  92 W7        29.97S
$$

...UNOFFICIAL OBSERVATIONS...

CITY           SKY/WX    TMP DP  RH WIND       PRES   REMARKS
GOVE KS          N/A     34  32  92 MISG        N/A
SHARON SPRINGS   N/A     33  31  93 S13G20      N/A
KIT CARSON CO    N/A     34  31  90 MISG        N/A
YUMA CO          N/A     34  30  86 CALM        N/A
$$



USA.gov is the U.S. government's official web portal to all federal, state and local government web resources and services.